{"data":{"norad_id":58360,"epoch":"2026-09-19T22:35:27.565728Z","epoch_age_seconds":191829,"freshness":"STALE","line1":"1 58360U 23177K   26262.94129127 -.00000553  00000+0 -10564-4 0  9999","line2":"2 58360  43.0044 348.2176 0001243 270.5639  89.5070 15.27573548157764","mean_motion":15.27573548,"eccentricity":0.0001243,"inclination_deg":43.0044,"raan_deg":348.2176,"arg_perigee_deg":270.5639,"mean_anomaly_deg":89.507,"bstar":-1.0564e-5,"rev_number":15776,"period_min":94.267146867353,"perigee_km":482.21556788357,"apogee_km":483.92126354992,"semimajor_km":6861.2054157167,"source":"CELESTRAK","updated_at":"2026-09-21T09:00:33.842626Z"}}